Location: Newark
(25.4800°N, 85.7200°E)
Time: 22:32:39
(UTC+00:00)

Explorer 11/Cluster Stage 4 - Pass Details

Date: 22 August 2019
Orbit: 467 x 1260 km, 28.8° (Epoch: 20 September)

Event Time Altitude Azimuth Distance (km) Brightness Sun altitude
Rises 08:15:32 0° 281° (W) 4,172 10.7 59.6°
Reaches altitude 10° 08:18:36 10° 283° (WNW) 3,159 10.2 58.9°
Maximum altitude 08:26:33 74° 7° (N) 1,136 8.3 57.2°
Drops below altitude 10° 08:33:13 10° 93° (E) 2,673 9.1 55.8°
Sets 08:35:37 0° 95° (E) 3,501 9.6 55.3°
